Temperature
21 21 20 20 20 20 19 19 19 19 19 18 18 18 18 18 18 18 17 17 17 17 17 16 16 16 16 16 16 16 15 15 15 15 15 14 14 14 14 14 14 14 14
21 20 20 20 20 19 19 19 19 19 18 18 18 18 18 18 18 17 17 17 17 17 17 16 16 16 16 16 16 15 15 15 15 15 15 14 14 14 14 14 14 14 13
21 20 20 20 19 19 19 19 19 19 18 18 18 18 18 18 17 17 17 17 17 17 17 16 16 16 16 16 16 15 15 15 14 14 14 14 14 14 14 14 13 13 13
20 20 20 20 19 19 19 19 18 18 18 18 18 18 18 18 17 17 17 17 17 17 16 16 16 16 16 16 15 15 15 14 14 14 14 13 13 13 13 13 13 13 13
20 20 20 20 19 19 18 18 18 18 18 18 18 17 17 17 17 17 17 17 16 16 16 16 16 16 16 15 15 15 14 14 14 14 14 13 13 13 13 13 13 12 12
20 20 19 19 19 18 18 18 18 18 18 18 17 17 17 17 17 17 16 16 16 16 16 16 16 15 15 15 15 15 14 14 14 14 13 13 13 13 13 13 12 12 12
19 19 19 18 18 18 18 18 17 17 18 17 17 17 17 17 17 16 16 16 16 16 16 15 15 15 15 15 14 14 14 14 13 13 13 13 13 13 13 12 12 12 12
19 19 19 18 18 18 18 17 17 17 17 17 17 17 17 17 16 16 16 16 15 15 15 15 15 15 15 14 14 14 14 13 13 13 13 13 13 13 13 12 12 12 12
18 18 18 18 18 18 18 17 17 17 17 17 16 16 16 16 16 16 15 15 15 15 15 14 14 14 14 14 14 13 13 13 13 13 13 13 13 12 12 12 12 11 11
18 18 18 18 18 18 18 17 17 17 17 16 16 16 16 16 16 15 15 15 15 15 14 14 14 14 14 14 13 13 13 13 13 13 13 12 12 12 12 12 12 11 11
18 18 18 18 17 17 17 17 17 17 16 16 16 16 16 15 15 15 15 15 15 14 14 14 14 14 13 13 13 13 13 13 12 12 12 12 12 12 12 11 11 11 11
18 18 17 17 17 17 17 16 16 16 16 16 15 15 15 15 15 14 14 14 14 14 14 14 14 13 13 13 13 13 12 12 12 12 12 12 11 11 11 11 11 11 11
17 17 17 17 17 16 16 16 16 16 15 15 15 15 15 15 15 14 14 14 14 13 13 13 13 13 13 12 12 12 12 12 11 11 11 11 11 11 11 10 10 10 10
16 16 16 16 16 16 16 15 15 15 15 15 15 14 14 14 14 14 14 14 13 13 13 13 12 12 12 12 12 12 11 11 11 11 11 11 10 10 10 10 10 10 10
16 16 15 15 15 15 15 15 15 15 15 15 14 14 14 14 14 13 13 13 13 13 12 12 12 12 11 11 11 11 11 11 10 10 10 10 10 10 10 10 10 10 9
15 15 15 15 15 14 14 14 14 14 14 14 14 14 14 13 13 13 13 13 13 12 12 12 12 11 11 11 11 11 10 10 10 10 10 10 10 9 9 9 9 9 9
15 14 14 14 14 14 14 14 14 14 13 13 13 13 13 13 13 13 12 12 12 11 11 11 11 11 11 11 11 10 10 10 10 9 9 9 9 9 9 9 9 9 9
14 14 14 14 14 14 13 13 13 13 13 13 13 12 12 12 12 12 12 11 11 11 10 10 10 10 10 10 10 10 10 10 9 9 9 9 9 9 8 8 8 8 8
14 13 13 13 13 13 13 13 13 12 12 12 12 12 11 11 11 11 11 11 11 11 10 10 10 10 10 10 10 10 9 9 9 9 9 9 8 8 8 8 8 8 8
13 13 13 13 13 13 13 12 12 12 12 12 11 11 11 11 11 11 11 11 10 10 10 10 10 10 9 9 9 9 9 9 9 9 8 8 8 8 8 8 8 7 7
13 12 12 12 12 12 12 12 12 12 11 11 11 11 11 11 11 11 10 10 10 10 10 10 9 9 9 9 9 8 8 8 8 8 8 8 8 8 7 7 7 7 7
12 12 12 12 12 12 11 11 11 11 11 11 11 10 10 10 10 10 10 10 10 9 9 9 9 9 9 8 8 8 8 8 8 8 7 7 7 7 7 7 7 7 7
12 12 11 11 11 11 11 11 11 11 11 11 10 10 10 10 10 10 9 9 9 9 9 9 8 8 8 8 8 8 8 8 8 7 7 7 7 7 7 7 7 7 7
11 11 11 11 11 11 11 11 11 10 10 10 10 10 10 10 9 9 9 9 9 9 8 8 8 8 8 8 7 7 7 7 7 7 7 7 7 6 6 6 6 6 6
11 11 11 11 11 11 11 11 10 10 10 10 10 10 9 9 9 9 9 8 8 8 8 8 8 7 7 7 7 7 7 7 7 7 7 6 6 6 6 6 6 6 6
11 11 11 11 11 10 10 10 10 10 10 10 10 9 9 9 9 8 8 8 8 8 7 7 7 7 7 7 7 7 7 6 6 6 6 6 6 6 6 6 6 5 5
Wind_Speed
8 7 7 6 6 6 5 6 6 5 5 5 5 5 5 5 4 4 4 4 4 3 3 3 3 2 1 1 1 1 2 2 3 2 1 1 1 1 1 1 2 2 2
7 6 6 6 6 6 6 6 5 5 5 5 5 5 5 5 4 5 5 4 4 4 3 3 2 2 1 1 1 1 2 2 2 2 1 1 1 2 1 1 1 1 2
5 5 5 5 6 7 7 6 5 5 5 5 5 5 5 4 4 4 4 4 4 4 3 3 3 2 2 2 1 1 2 1 1 2 2 1 1 1 0 0 0 0 1
6 6 6 6 6 6 6 6 5 5 4 5 5 5 5 5 4 4 4 3 3 3 3 3 3 3 3 3 2 2 2 1 1 2 1 1 1 1 1 1 1 1 1
6 6 7 6 5 5 5 5 5 5 5 5 5 5 4 4 4 5 4 4 3 2 2 3 3 3 4 3 3 3 2 2 2 2 2 1 1 1 2 2 2 1 1
6 6 5 5 5 6 5 5 5 5 5 5 5 5 5 4 6 7 6 4 4 4 3 3 2 2 2 3 4 4 5 4 4 3 3 3 4 4 3 3 2 1 2
5 5 6 6 6 6 6 6 7 6 5 4 4 5 5 5 6 7 6 5 4 4 4 3 2 1 2 2 3 3 3 5 6 5 4 5 4 5 4 4 3 3 3
4 5 5 6 6 5 6 7 7 6 6 5 5 5 4 4 6 7 7 5 4 4 4 4 3 2 2 3 2 2 2 3 4 4 5 6 5 5 6 6 5 3 0
4 4 5 6 7 7 8 8 6 6 6 5 5 6 5 4 5 6 6 3 2 3 3 3 3 3 3 4 3 3 2 3 3 3 4 4 4 5 5 3 3 3 1
5 5 5 5 6 7 7 7 6 6 6 5 4 5 6 5 5 7 7 4 3 2 2 2 3 3 3 5 4 4 3 3 2 2 2 2 2 2 4 5 5 4 2
4 4 4 5 5 6 5 5 4 5 5 5 5 4 5 5 5 7 8 5 5 3 3 3 3 3 3 4 4 3 4 3 2 2 1 1 1 1 1 3 4 5 4
3 3 4 4 4 3 4 4 4 5 5 5 4 3 2 3 4 5 6 7 6 5 4 4 3 4 3 3 3 2 2 2 1 1 1 1 1 2 2 2 3 4 5
2 3 3 3 2 3 4 5 5 5 5 4 4 4 3 2 3 5 5 6 6 4 3 4 4 4 3 2 2 2 2 1 1 1 2 2 2 2 1 0 0 1 1
2 3 3 3 3 2 3 4 4 5 5 4 4 4 3 3 3 3 3 3 4 3 2 2 3 2 1 0 0 0 1 2 2 2 2 2 1 0 1 1 1 1 1
2 3 3 3 3 3 2 1 3 4 6 6 5 5 5 5 5 7 6 5 4 4 3 2 1 1 1 0 0 1 0 0 1 1 1 1 1 1 2 1 2 1 2
1 2 3 3 3 4 4 2 3 1 3 4 6 6 4 5 7 7 8 7 7 8 5 3 3 3 3 3 2 2 1 2 2 2 1 1 2 2 2 2 2 2 3
2 2 2 3 3 4 4 4 2 1 2 3 4 5 5 6 6 7 7 7 6 8 4 4 3 3 3 3 3 3 2 2 2 2 2 2 1 1 1 2 2 2 3
1 2 2 3 3 4 4 4 4 4 2 0 1 2 3 4 5 6 6 6 4 4 3 4 4 4 4 4 3 3 2 2 1 1 2 2 2 1 1 2 2 3 3
1 1 1 2 2 3 3 3 3 4 3 2 1 0 1 2 2 2 6 4 5 5 4 4 4 3 3 3 4 3 3 2 2 2 2 2 2 1 2 2 2 3 3
1 1 1 2 2 3 3 3 3 3 3 3 2 2 1 2 1 1 2 3 4 4 4 4 3 3 3 3 3 3 2 2 2 2 1 2 2 2 2 3 2 3 3
1 1 1 1 2 2 3 3 3 3 3 3 2 3 5 3 3 3 3 3 4 4 3 3 3 2 2 2 2 3 3 2 2 2 1 2 2 2 2 2 2 3 3
1 1 1 2 2 2 3 3 3 3 3 2 1 1 4 2 2 2 2 3 3 3 3 3 2 2 3 3 3 3 3 2 2 1 1 1 1 2 2 2 2 2 2
1 1 1 2 2 2 2 2 3 2 2 3 3 3 3 2 2 2 2 2 2 2 2 2 2 1 1 2 3 3 3 3 3 3 2 2 2 2 2 2 3 3 3
1 1 2 2 2 2 3 3 3 3 3 3 3 3 3 3 2 2 2 2 2 2 2 3 3 3 3 2 3 3 2 1 1 2 2 2 2 2 2 2 3 3 4
1 2 2 3 3 3 3 3 3 3 3 3 3 3 3 3 2 2 1 2 2 2 2 3 4 4 4 4 4 4 3 2 1 1 0 1 1 2 2 3 3 3 3
2 2 2 2 2 3 3 3 3 3 3 2 2 2 2 2 2 2 2 2 2 2 2 3 4 4 4 4 4 4 3 2 1 1 0 0 1 1 2 2 3 3 3
Wind_Direction
187 192 195 197 198 194 196 203 204 205 196 192 195 191 189 191 189 181 188 176 177 187 188 181 201 192 197 224 203 189 192 182 210 260 251 240 170 183 168 193 190 180 206
187 189 196 199 197 197 203 204 198 200 198 192 187 185 188 186 180 177 185 182 177 184 190 181 208 193 202 229 209 210 209 200 193 236 256 225 221 212 197 205 174 190 196
178 182 191 199 200 201 202 198 194 197 199 192 179 176 177 175 175 178 175 176 179 185 186 184 201 179 215 237 215 217 227 219 192 195 235 249 263 203 149 241 199 124 177
182 188 197 207 209 203 194 188 191 194 195 192 180 174 172 168 166 167 164 174 181 185 186 193 200 196 206 216 217 221 214 216 206 187 218 251 259 236 161 201 281 295 259
186 196 204 208 206 186 181 179 183 189 195 190 177 172 171 175 178 167 166 172 174 187 202 213 212 196 189 198 205 210 199 208 209 202 218 241 243 217 221 211 216 236 265
192 200 201 201 199 185 183 176 176 188 188 182 178 179 182 193 174 166 167 173 180 192 210 233 232 213 218 217 213 204 195 197 208 209 217 226 236 226 217 201 184 165 249
200 204 203 198 195 191 188 183 189 193 189 185 187 182 183 188 179 175 178 179 183 195 197 207 229 236 213 224 228 227 229 223 206 200 209 224 222 219 204 201 194 187 213
199 201 199 200 201 198 191 194 198 194 191 193 192 187 178 185 185 184 184 178 178 189 193 196 197 211 220 201 204 221 247 245 229 214 217 227 226 219 204 202 200 191 247
204 209 202 198 199 201 203 204 197 191 195 196 189 183 177 183 184 185 171 160 183 209 211 198 190 203 225 191 179 203 249 279 270 243 234 229 216 199 180 160 160 156 219
215 216 208 203 206 205 206 205 199 189 192 188 183 181 177 184 188 190 177 170 184 211 230 221 202 200 206 183 182 190 222 254 274 301 293 280 238 210 193 188 185 180 181
217 210 208 210 208 204 200 201 193 186 182 183 181 182 184 187 186 183 180 181 188 199 217 221 229 213 187 180 184 202 228 229 224 221 246 280 315 284 236 215 192 181 184
211 213 219 218 213 203 187 186 181 179 182 186 183 188 203 195 182 182 181 185 183 189 215 221 221 206 188 188 196 220 204 173 154 159 213 248 260 271 265 238 209 204 209
210 223 227 224 215 189 177 182 183 175 187 192 190 194 202 199 192 185 181 180 172 183 214 212 191 180 181 203 221 205 165 154 162 181 218 242 243 240 235 259 308 287 287
213 223 212 198 195 195 184 181 182 186 188 191 195 196 204 208 206 193 186 183 175 180 196 194 178 161 157 190 81 169 170 175 179 208 235 252 268 240 219 209 209 194 240
239 227 210 194 180 170 162 178 186 195 193 187 197 193 192 209 221 199 184 186 188 188 157 119 103 118 163 268 286 273 220 141 203 232 233 239 249 243 245 224 197 185 214
249 240 213 196 174 164 158 106 38 139 156 172 184 184 199 199 196 193 188 187 181 166 148 164 182 187 195 201 207 226 226 223 228 222 220 221 232 237 240 231 208 207 227
249 231 197 182 174 172 171 169 163 44 86 126 154 165 175 189 196 190 184 177 168 152 153 180 189 193 198 197 201 207 218 225 214 203 211 223 227 235 236 236 229 230 238
241 212 198 192 184 178 181 182 174 171 172 166 139 169 172 183 194 191 173 146 144 161 185 192 199 200 199 200 204 209 217 210 191 198 204 215 217 215 231 246 241 237 242
252 202 195 193 171 167 168 167 167 165 170 169 127 102 183 154 138 152 150 159 173 181 194 202 203 200 202 202 201 204 200 197 198 197 211 219 218 214 244 256 256 254 245
263 212 180 170 165 165 162 167 175 171 173 173 178 195 152 117 125 133 164 181 182 184 187 193 201 204 204 200 197 195 191 193 200 203 222 231 228 217 231 244 246 248 247
236 191 160 148 156 171 173 175 171 169 178 185 196 198 169 164 180 177 175 189 193 191 187 187 192 199 197 191 186 177 175 189 199 208 228 244 240 241 246 245 246 246 251
203 195 186 178 171 167 168 159 147 151 162 163 153 127 159 156 167 174 185 198 200 194 187 182 185 189 189 184 178 171 176 192 209 215 229 245 247 250 249 253 257 256 258
197 190 178 167 156 150 146 141 144 151 153 150 149 134 143 166 172 180 190 191 174 163 168 159 155 145 144 155 158 164 179 204 213 205 203 224 249 258 254 249 254 255 254
136 141 138 137 130 130 135 137 141 147 146 142 141 145 153 161 156 148 151 147 136 126 120 127 137 138 135 127 127 130 142 179 197 201 204 217 239 246 246 252 258 255 252
107 112 118 128 129 127 125 125 126 126 128 132 134 140 147 150 149 141 141 144 137 133 124 119 119 117 122 122 110 102 93 81 72 74 146 207 229 249 253 256 260 265 260
93 105 114 122 124 127 129 131 130 128 125 121 119 122 129 132 126 114 107 103 106 111 107 109 110 113 114 111 110 106 89 69 44 26 66 206 227 265 273 270 269 264 266
Height
1524 1526 1527 1528 1528 1529 1530 1531 1532 1532 1532 1533 1533 1533 1534 1534 1535 1535 1535 1535 1536 1536 1536 1536 1537 1537 1536 1536 1536 1536 1536 1536 1535 1535 1535 1534 1534 1533 1533 1532 1531 1531 1530
1522 1523 1524 1525 1525 1526 1527 1528 1529 1529 1530 1530 1530 1531 1531 1531 1532 1533 1533 1533 1533 1534 1534 1534 1534 1534 1534 1534 1533 1533 1533 1533 1533 1532 1532 1532 1531 1531 1530 1529 1529 1528 1528
1519 1520 1521 1522 1522 1523 1523 1525 1526 1527 1527 1527 1528 1528 1529 1529 1530 1531 1531 1531 1532 1532 1532 1532 1531 1531 1531 1531 1531 1531 1531 1530 1530 1530 1529 1529 1528 1528 1527 1527 1526 1526 1526
1517 1518 1518 1518 1519 1519 1519 1520 1522 1523 1524 1524 1525 1526 1526 1527 1527 1528 1529 1530 1530 1530 1530 1530 1529 1529 1528 1528 1528 1528 1528 1527 1527 1527 1526 1526 1525 1525 1525 1524 1523 1523 1523
1514 1515 1515 1515 1516 1516 1516 1517 1519 1520 1521 1522 1522 1522 1523 1524 1524 1525 1526 1527 1527 1527 1527 1527 1527 1527 1526 1525 1525 1525 1525 1525 1524 1524 1523 1523 1522 1522 1521 1521 1521 1521 1520
1511 1511 1511 1512 1513 1513 1513 1514 1516 1517 1517 1518 1518 1519 1520 1521 1522 1523 1524 1524 1524 1525 1525 1524 1524 1524 1523 1523 1522 1522 1522 1521 1521 1520 1519 1519 1519 1519 1518 1518 1518 1518 1517
1509 1509 1508 1509 1509 1510 1511 1511 1513 1514 1514 1514 1515 1516 1517 1518 1519 1520 1521 1521 1521 1521 1521 1521 1521 1521 1520 1520 1520 1519 1519 1518 1518 1517 1516 1516 1516 1516 1516 1515 1515 1515 1515
1506 1506 1506 1506 1507 1507 1508 1508 1509 1510 1511 1511 1512 1512 1513 1514 1516 1517 1517 1517 1518 1518 1518 1518 1518 1518 1517 1517 1516 1516 1515 1515 1514 1514 1513 1513 1513 1513 1513 1513 1513 1513 1513
1503 1503 1503 1503 1504 1504 1504 1505 1506 1507 1507 1507 1508 1509 1509 1510 1511 1512 1513 1514 1514 1514 1514 1515 1515 1514 1514 1514 1513 1513 1512 1512 1512 1511 1510 1510 1510 1510 1510 1510 1509 1510 1510
1499 1499 1500 1500 1500 1500 1501 1501 1502 1503 1503 1504 1504 1504 1505 1506 1507 1508 1509 1509 1510 1510 1511 1511 1511 1511 1511 1511 1510 1509 1509 1508 1508 1508 1508 1507 1507 1507 1506 1506 1506 1507 1507
1495 1496 1496 1496 1496 1497 1497 1498 1498 1499 1500 1500 1500 1500 1501 1502 1503 1504 1505 1506 1506 1507 1507 1508 1507 1507 1507 1507 1507 1506 1506 1506 1505 1505 1505 1504 1504 1504 1503 1504 1504 1504 1504
1491 1491 1491 1491 1492 1492 1492 1493 1494 1494 1495 1496 1497 1497 1497 1498 1499 1500 1501 1502 1503 1503 1504 1504 1504 1504 1504 1504 1504 1504 1504 1503 1503 1502 1502 1501 1501 1501 1501 1501 1501 1502 1502
1487 1487 1487 1487 1487 1488 1487 1487 1488 1489 1491 1492 1493 1493 1494 1495 1495 1496 1497 1498 1499 1500 1500 1501 1501 1501 1501 1501 1501 1501 1501 1500 1500 1499 1499 1499 1499 1499 1499 1499 1499 1499 1500
1483 1483 1483 1483 1483 1483 1484 1484 1484 1485 1487 1488 1489 1490 1491 1491 1492 1493 1493 1494 1495 1496 1497 1497 1498 1498 1498 1498 1498 1497 1497 1497 1497 1496 1496 1496 1496 1496 1496 1496 1496 1496 1496
1479 1479 1478 1479 1479 1479 1479 1479 1480 1482 1483 1484 1485 1486 1486 1487 1488 1490 1490 1491 1491 1492 1493 1494 1494 1495 1495 1495 1494 1494 1494 1493 1493 1493 1494 1493 1493 1493 1493 1493 1493 1493 1493
1474 1474 1474 1475 1475 1475 1475 1476 1477 1478 1479 1480 1480 1481 1482 1483 1484 1485 1486 1487 1487 1488 1489 1489 1489 1490 1490 1490 1491 1491 1491 1490 1490 1490 1490 1490 1490 1490 1490 1490 1490 1490 1490
1471 1471 1471 1471 1471 1472 1472 1473 1473 1474 1475 1476 1476 1477 1478 1478 1479 1480 1481 1482 1483 1484 1484 1484 1485 1486 1486 1487 1487 1487 1487 1487 1487 1488 1488 1488 1488 1488 1487 1487 1487 1487 1486
1468 1468 1468 1468 1468 1468 1469 1470 1470 1470 1471 1472 1472 1473 1474 1474 1475 1475 1476 1477 1477 1478 1479 1480 1480 1481 1482 1483 1483 1484 1484 1484 1484 1484 1485 1485 1485 1484 1484 1484 1484 1483 1483
1466 1465 1465 1465 1465 1465 1466 1466 1467 1467 1468 1469 1469 1469 1470 1470 1470 1471 1471 1471 1472 1473 1475 1476 1476 1477 1478 1479 1480 1480 1481 1481 1481 1481 1482 1481 1481 1481 1481 1481 1481 1480 1480
1463 1463 1463 1462 1463 1463 1463 1464 1464 1464 1465 1466 1467 1467 1467 1467 1466 1466 1467 1468 1469 1470 1471 1472 1473 1474 1474 1475 1476 1477 1477 1478 1478 1478 1478 1478 1478 1478 1478 1477 1477 1476 1475
1461 1461 1461 1460 1461 1461 1461 1462 1462 1462 1463 1465 1466 1466 1466 1465 1464 1464 1464 1465 1466 1467 1468 1469 1470 1470 1471 1472 1473 1474 1474 1474 1475 1475 1475 1475 1475 1475 1474 1474 1473 1473 1472
1459 1459 1458 1458 1459 1459 1459 1460 1460 1461 1462 1463 1464 1465 1465 1464 1463 1463 1463 1464 1464 1465 1466 1467 1467 1467 1468 1469 1470 1470 1470 1471 1471 1471 1472 1472 1472 1471 1471 1470 1470 1469 1468
1457 1457 1457 1457 1457 1457 1458 1458 1459 1460 1461 1461 1462 1463 1463 1463 1463 1463 1463 1463 1463 1463 1463 1464 1464 1464 1465 1466 1467 1467 1467 1467 1468 1468 1468 1468 1468 1467 1467 1466 1466 1465 1464
1456 1456 1456 1456 1456 1456 1457 1457 1458 1459 1460 1461 1461 1461 1462 1462 1462 1462 1462 1462 1461 1461 1461 1461 1461 1462 1463 1464 1463 1464 1464 1464 1464 1464 1464 1464 1464 1463 1463 1462 1462 1462 1461
1455 1455 1455 1455 1456 1456 1457 1457 1458 1459 1460 1460 1461 1461 1461 1461 1461 1461 1461 1461 1460 1460 1460 1460 1460 1461 1461 1461 1461 1461 1461 1461 1461 1461 1461 1460 1460 1460 1459 1459 1458 1458 1457
1455 1455 1455 1456 1456 1456 1456 1457 1458 1459 1459 1460 1460 1460 1460 1460 1460 1460 1460 1459 1458 1458 1458 1458 1459 1459 1459 1459 1459 1459 1459 1458 1458 1458 1457 1457 1456 1456 1455 1455 1454 1453 1452